owner,sensor,date,latitude,longitude,vertical_datum,mass_concentration_of_oxygen_in_sea_water,qcFlag 
DISL,ioos:station:DISL:DISL:1,2014-01-01T06:30:00Z,30.2513,-88.0778,2.597,10.71,1111122 
DISL,ioos:station:DISL:DISL:1,2014-01-01T07:00:00Z,30.2513,-88.0778,2.571,10.62,1111122 
DISL,ioos:station:DISL:DISL:1,2014-01-01T07:30:00Z,30.2513,-88.0778,2.545,10.48,1111122 
DISL,ioos:station:DISL:DISL:1,2014-01-01T08:00:00Z,30.2513,-88.0778,2.494,10.42,1111122 
DISL,ioos:station:DISL:DISL:1,2014-01-01T08:30:00Z,30.2513,-88.0778,2.472,10.45,1111122 
DISL,ioos:station:DISL:DISL:1,2014-01-01T09:00:00Z,30.2513,-88.0778,2.434,10.48,1111122 
DISL,ioos:station:DISL:DISL:1,2014-01-01T09:30:00Z,30.2513,-88.0778,2.367,10.41,1111122 
DISL,ioos:station:DISL:DISL:1,2014-01-01T10:00:00Z,30.2513,-88.0778,2.349,10.41,1111122 
DISL,ioos:station:DISL:DISL:1,2014-01-01T10:30:00Z,30.2513,-88.0778,2.275,10.41,1111122 
DISL,ioos:station:DISL:DISL:1,2014-01-01T11:00:00Z,30.2513,-88.0778,2.269,10.35,1111122 
DISL,ioos:station:DISL:DISL:1,2014-01-01T11:30:00Z,30.2513,-88.0778,2.252,10.39,1111122 
DISL,ioos:station:DISL:DISL:1,2014-01-01T12:00:00Z,30.2513,-88.0778,2.241,10.43,1111122 
DISL,ioos:station:DISL:DISL:1,2014-01-01T12:30:00Z,30.2513,-88.0778,2.223,10.4,1111122 
DISL,ioos:station:DISL:DISL:1,2014-01-01T13:00:00Z,30.2513,-88.0778,2.203,10.4,1111122 
DISL,ioos:station:DISL:DISL:1,2014-01-01T13:30:00Z,30.2513,-88.0778,2.179,10.36,1111122 
DISL,ioos:station:DISL:DISL:1,2014-01-01T14:00:00Z,30.2513,-88.0778,2.176,10.33,1111122 
DISL,ioos:station:DISL:DISL:1,2014-01-01T14:30:00Z,30.2513,-88.0778,2.168,10.28,1111122 
DISL,ioos:station:DISL:DISL:1,2014-01-01T15:00:00Z,30.2513,-88.0778,2.155,10.36,1111122 
DISL,ioos:station:DISL:DISL:1,2014-01-01T15:30:00Z,30.2513,-88.0778,2.184,10.31,1111122 
DISL,ioos:station:DISL:DISL:1,2014-01-01T16:00:00Z,30.2513,-88.0778,2.197,10.34,1111122 
DISL,ioos:station:DISL:DISL:1,2014-01-01T16:30:00Z,30.2513,-88.0778,2.214,10.37,1111122 
DISL,ioos:station:DISL:DISL:1,2014-01-01T17:00:00Z,30.2513,-88.0778,2.202,10.38,1111122 
DISL,ioos:station:DISL:DISL:1,2014-01-01T17:30:00Z,30.2513,-88.0778,2.186,10.32,1111122 
DISL,ioos:station:DISL:DISL:1,2014-01-01T18:00:00Z,30.2513,-88.0778,2.188,10.22,1111122 
DISL,ioos:station:DISL:DISL:1,2014-01-01T18:30:00Z,30.2513,-88.0778,2.231,10.21,1111122 
DISL,ioos:station:DISL:DISL:1,2014-01-01T19:00:00Z,30.2513,-88.0778,2.195,10.23,1111122 
DISL,ioos:station:DISL:DISL:1,2014-01-01T19:30:00Z,30.2513,-88.0778,2.28,10.18,1111122 
DISL,ioos:station:DISL:DISL:1,2014-01-01T20:00:00Z,30.2513,-88.0778,2.188,10.29,1111122 
DISL,ioos:station:DISL:DISL:1,2014-01-01T20:30:00Z,30.2513,-88.0778,2.197,9.99,1111122 
DISL,ioos:station:DISL:DISL:1,2014-01-01T21:00:00Z,30.2513,-88.0778,2.304,8.64,1111122 
DISL,ioos:station:DISL:DISL:1,2014-01-01T21:30:00Z,30.2513,-88.0778,2.326,8.52,1111122 
DISL,ioos:station:DISL:DISL:1,2014-01-01T22:00:00Z,30.2513,-88.0778,2.351,8.4,1111122 
DISL,ioos:station:DISL:DISL:1,2014-01-01T22:30:00Z,30.2513,-88.0778,2.433,8.24,1111122 
DISL,ioos:station:DISL:DISL:1,2014-01-01T23:00:00Z,30.2513,-88.0778,2.465,8.31,1111122 
DISL,ioos:station:DISL:DISL:1,2014-01-01T23:30:00Z,30.2513,-88.0778,2.474,8.22,1111122 
DISL,ioos:station:DISL:DISL:1,2014-01-02T00:00:00Z,30.2513,-88.0778,2.485,8.09,1111122 
DISL,ioos:station:DISL:DISL:1,2014-01-02T00:30:00Z,30.2513,-88.0778,2.477,8.17,1111122 
DISL,ioos:station:DISL:DISL:1,2014-01-02T01:00:00Z,30.2513,-88.0778,2.531,8.09,1111122 
DISL,ioos:station:DISL:DISL:1,2014-01-02T01:30:00Z,30.2513,-88.0778,2.546,8.06,1111122 
DISL,ioos:station:DISL:DISL:1,2014-01-02T02:00:00Z,30.2513,-88.0778,2.557,8.09,1111122 
DISL,ioos:station:DISL:DISL:1,2014-01-02T02:30:00Z,30.2513,-88.0778,2.565,8.02,1111122 
DISL,ioos:station:DISL:DISL:1,2014-01-02T03:00:00Z,30.2513,-88.0778,2.613,8.35,1111122 
DISL,ioos:station:DISL:DISL:1,2014-01-02T03:30:00Z,30.2513,-88.0778,2.565,9.12,1111122 
DISL,ioos:station:DISL:DISL:1,2014-01-02T04:00:00Z,30.2513,-88.0778,2.663,11.4,1111122 
DISL,ioos:station:DISL:DISL:1,2014-01-02T04:30:00Z,30.2513,-88.0778,2.678,12.02,1111122 
DISL,ioos:station:DISL:DISL:1,2014-01-02T05:00:00Z,30.2513,-88.0778,2.643,11.14,1111122 
DISL,ioos:station:DISL:DISL:1,2014-01-02T05:30:00Z,30.2513,-88.0778,2.666,10.49,1111122 
DISL,ioos:station:DISL:DISL:1,2014-01-02T06:00:00Z,30.2513,-88.0778,2.698,10.19,1111122 
DISL,ioos:station:DISL:DISL:1,2014-01-02T06:30:00Z,30.2513,-88.0778,2.646,10.29,1111122 
DISL,ioos:station:DISL:DISL:1,2014-01-02T07:00:00Z,30.2513,-88.0778,2.607,10.36,1111122 
DISL,ioos:station:DISL:DISL:1,2014-01-02T07:30:00Z,30.2513,-88.0778,2.579,10.31,1111122 
DISL,ioos:station:DISL:DISL:1,2014-01-02T08:00:00Z,30.2513,-88.0778,2.503,10.14,1111122 
DISL,ioos:station:DISL:DISL:1,2014-01-02T08:30:00Z,30.2513,-88.0778,2.458,10.21,1111122 
DISL,ioos:station:DISL:DISL:1,2014-01-02T09:00:00Z,30.2513,-88.0778,2.394,10.13,1111122 
DISL,ioos:station:DISL:DISL:1,2014-01-02T09:30:00Z,30.2513,-88.0778,2.373,10.22,1111122 
DISL,ioos:station:DISL:DISL:1,2014-01-02T10:00:00Z,30.2513,-88.0778,2.354,10.09,1111122 
DISL,ioos:station:DISL:DISL:1,2014-01-02T10:30:00Z,30.2513,-88.0778,2.314,10.21,1111122 
DISL,ioos:station:DISL:DISL:1,2014-01-02T11:00:00Z,30.2513,-88.0778,2.277,10.21,1111122 
DISL,ioos:station:DISL:DISL:1,2014-01-02T11:30:00Z,30.2513,-88.0778,2.273,10.28,1111122 
DISL,ioos:station:DISL:DISL:1,2014-01-02T12:00:00Z,30.2513,-88.0778,2.233,10.22,1111122 
DISL,ioos:station:DISL:DISL:1,2014-01-02T12:30:00Z,30.2513,-88.0778,2.192,10.19,1111122 
DISL,ioos:station:DISL:DISL:1,2014-01-02T13:00:00Z,30.2513,-88.0778,2.179,10.21,1111122 
DISL,ioos:station:DISL:DISL:1,2014-01-02T13:30:00Z,30.2513,-88.0778,2.174,10.15,1111122 
DISL,ioos:station:DISL:DISL:1,2014-01-02T14:00:00Z,30.2513,-88.0778,2.174,10.17,1111122 
DISL,ioos:station:DISL:DISL:1,2014-01-02T14:30:00Z,30.2513,-88.0778,2.162,10.18,1111122 
DISL,ioos:station:DISL:DISL:1,2014-01-02T15:00:00Z,30.2513,-88.0778,2.141,10.17,1111122 
DISL,ioos:station:DISL:DISL:1,2014-01-02T15:30:00Z,30.2513,-88.0778,2.126,10.14,1111122 
DISL,ioos:station:DISL:DISL:1,2014-01-02T16:00:00Z,30.2513,-88.0778,2.139,10.32,1111122 
DISL,ioos:station:DISL:DISL:1,2014-01-02T16:30:00Z,30.2513,-88.0778,2.142,10.21,1111122 
DISL,ioos:station:DISL:DISL:1,2014-01-02T17:00:00Z,30.2513,-88.0778,2.154,10.25,1111122 
DISL,ioos:station:DISL:DISL:1,2014-01-02T17:30:00Z,30.2513,-88.0778,2.14,10.43,1111122 
DISL,ioos:station:DISL:DISL:1,2014-01-02T18:00:00Z,30.2513,-88.0778,2.171,10.35,1111122 
DISL,ioos:station:DISL:DISL:1,2014-01-02T18:30:00Z,30.2513,-88.0778,2.17,10.4,1111122 
DISL,ioos:station:DISL:DISL:1,2014-01-02T19:00:00Z,30.2513,-88.0778,2.187,10.42,1111122 
DISL,ioos:station:DISL:DISL:1,2014-01-02T19:30:00Z,30.2513,-88.0778,2.183,10.35,1111122 
DISL,ioos:station:DISL:DISL:1,2014-01-02T20:00:00Z,30.2513,-88.0778,2.213,10.54,1111122 
DISL,ioos:station:DISL:DISL:1,2014-01-02T20:30:00Z,30.2513,-88.0778,2.287,10.83,1111122 
DISL,ioos:station:DISL:DISL:1,2014-01-02T21:00:00Z,30.2513,-88.0778,2.252,11.0,1111122 
DISL,ioos:station:DISL:DISL:1,2014-01-02T21:30:00Z,30.2513,-88.0778,2.255,11.04,1111122 
DISL,ioos:station:DISL:DISL:1,2014-01-02T22:00:00Z,30.2513,-88.0778,2.343,11.04,1111122 
DISL,ioos:station:DISL:DISL:1,2014-01-02T22:30:00Z,30.2513,-88.0778,2.351,11.15,1111122 
DISL,ioos:station:DISL:DISL:1,2014-01-02T23:00:00Z,30.2513,-88.0778,2.425,11.11,1111122 
DISL,ioos:station:DISL:DISL:1,2014-01-02T23:30:00Z,30.2513,-88.0778,2.305,11.07,1111122 
DISL,ioos:station:DISL:DISL:1,2014-01-03T00:00:00Z,30.2513,-88.0778,2.397,10.83,1111122 
DISL,ioos:station:DISL:DISL:1,2014-01-03T00:30:00Z,30.2513,-88.0778,2.536,10.59,1111122 
DISL,ioos:station:DISL:DISL:1,2014-01-03T01:00:00Z,30.2513,-88.0778,2.349,10.51,1111122 
DISL,ioos:station:DISL:DISL:1,2014-01-03T01:30:00Z,30.2513,-88.0778,2.468,10.5,1111122 
DISL,ioos:station:DISL:DISL:1,2014-01-03T02:00:00Z,30.2513,-88.0778,2.465,10.5,1111122 
DISL,ioos:station:DISL:DISL:1,2014-01-03T02:30:00Z,30.2513,-88.0778,2.482,10.46,1111122 
DISL,ioos:station:DISL:DISL:1,2014-01-03T03:00:00Z,30.2513,-88.0778,2.486,10.55,1111122 
DISL,ioos:station:DISL:DISL:1,2014-01-03T03:30:00Z,30.2513,-88.0778,2.538,10.46,1111122 
DISL,ioos:station:DISL:DISL:1,2014-01-03T04:00:00Z,30.2513,-88.0778,2.561,10.58,1111122 
DISL,ioos:station:DISL:DISL:1,2014-01-03T04:30:00Z,30.2513,-88.0778,2.518,10.61,1111122 
DISL,ioos:station:DISL:DISL:1,2014-01-03T05:00:00Z,30.2513,-88.0778,2.567,10.45,1111122 
DISL,ioos:station:DISL:DISL:1,2014-01-03T05:30:00Z,30.2513,-88.0778,2.56,10.31,1111122 
DISL,ioos:station:DISL:DISL:1,2014-01-03T06:00:00Z,30.2513,-88.0778,2.54,10.23,1111122 
DISL,ioos:station:DISL:DISL:1,2014-01-03T06:30:00Z,30.2513,-88.0778,2.448,10.23,1111122 
DISL,ioos:station:DISL:DISL:1,2014-01-03T07:00:00Z,30.2513,-88.0778,2.545,10.19,1111122 
DISL,ioos:station:DISL:DISL:1,2014-01-03T07:30:00Z,30.2513,-88.0778,2.536,10.21,1111122 
DISL,ioos:station:DISL:DISL:1,2014-01-03T08:00:00Z,30.2513,-88.0778,2.456,10.2,1111122 
DISL,ioos:station:DISL:DISL:1,2014-01-03T08:30:00Z,30.2513,-88.0778,2.495,10.26,1111122 
DISL,ioos:station:DISL:DISL:1,2014-01-03T09:00:00Z,30.2513,-88.0778,2.452,10.24,1111122 
DISL,ioos:station:DISL:DISL:1,2014-01-03T09:30:00Z,30.2513,-88.0778,2.475,10.35,1111122 
DISL,ioos:station:DISL:DISL:1,2014-01-03T10:00:00Z,30.2513,-88.0778,2.477,10.32,1111122 
DISL,ioos:station:DISL:DISL:1,2014-01-03T10:30:00Z,30.2513,-88.0778,2.294,10.41,1111122 
DISL,ioos:station:DISL:DISL:1,2014-01-03T11:00:00Z,30.2513,-88.0778,2.287,10.87,1111122 
DISL,ioos:station:DISL:DISL:1,2014-01-03T11:30:00Z,30.2513,-88.0778,2.404,10.73,1111122 
DISL,ioos:station:DISL:DISL:1,2014-01-03T12:00:00Z,30.2513,-88.0778,2.315,10.79,1111122 
DISL,ioos:station:DISL:DISL:1,2014-01-03T12:30:00Z,30.2513,-88.0778,2.374,10.85,1111122 
DISL,ioos:station:DISL:DISL:1,2014-01-03T13:00:00Z,30.2513,-88.0778,2.358,10.9,1111122 
DISL,ioos:station:DISL:DISL:1,2014-01-03T13:30:00Z,30.2513,-88.0778,2.176,10.93,1111122 
DISL,ioos:station:DISL:DISL:1,2014-01-03T14:00:00Z,30.2513,-88.0778,2.239,11.01,1111122 
DISL,ioos:station:DISL:DISL:1,2014-01-03T14:30:00Z,30.2513,-88.0778,2.122,11.02,1111122 
DISL,ioos:station:DISL:DISL:1,2014-01-03T15:00:00Z,30.2513,-88.0778,2.234,10.99,1111122 
DISL,ioos:station:DISL:DISL:1,2014-01-03T15:30:00Z,30.2513,-88.0778,2.175,11.22,1111122 
DISL,ioos:station:DISL:DISL:1,2014-01-03T16:00:00Z,30.2513,-88.0778,2.206,11.09,1111122 
DISL,ioos:station:DISL:DISL:1,2014-01-03T16:30:00Z,30.2513,-88.0778,2.154,10.96,1111122 
DISL,ioos:station:DISL:DISL:1,2014-01-03T17:00:00Z,30.2513,-88.0778,2.129,10.89,1111122 
DISL,ioos:station:DISL:DISL:1,2014-01-03T17:30:00Z,30.2513,-88.0778,2.149,10.78,1111122 
DISL,ioos:station:DISL:DISL:1,2014-01-03T18:00:00Z,30.2513,-88.0778,2.179,10.44,1111122 
DISL,ioos:station:DISL:DISL:1,2014-01-03T18:30:00Z,30.2513,-88.0778,2.132,10.43,1111122 
DISL,ioos:station:DISL:DISL:1,2014-01-03T19:00:00Z,30.2513,-88.0778,2.115,10.35,1111122 
DISL,ioos:station:DISL:DISL:1,2014-01-03T19:30:00Z,30.2513,-88.0778,2.102,10.26,1111122 
DISL,ioos:station:DISL:DISL:1,2014-01-03T20:00:00Z,30.2513,-88.0778,2.108,10.55,1111122 
DISL,ioos:station:DISL:DISL:1,2014-01-03T20:30:00Z,30.2513,-88.0778,2.153,10.35,1111122 
DISL,ioos:station:DISL:DISL:1,2014-01-03T21:00:00Z,30.2513,-88.0778,2.156,10.56,1111122 
DISL,ioos:station:DISL:DISL:1,2014-01-03T21:30:00Z,30.2513,-88.0778,2.165,10.79,1111122 
DISL,ioos:station:DISL:DISL:1,2014-01-03T22:00:00Z,30.2513,-88.0778,2.258,10.78,1111122 
DISL,ioos:station:DISL:DISL:1,2014-01-03T22:30:00Z,30.2513,-88.0778,2.272,11.28,1111122 
DISL,ioos:station:DISL:DISL:1,2014-01-03T23:00:00Z,30.2513,-88.0778,2.343,11.88,1111122 
DISL,ioos:station:DISL:DISL:1,2014-01-03T23:30:00Z,30.2513,-88.0778,2.362,11.98,1111122 
DISL,ioos:station:DISL:DISL:1,2014-01-04T00:00:00Z,30.2513,-88.0778,2.417,11.61,1111122 
DISL,ioos:station:DISL:DISL:1,2014-01-04T00:30:00Z,30.2513,-88.0778,2.442,10.77,1111122 
DISL,ioos:station:DISL:DISL:1,2014-01-04T01:00:00Z,30.2513,-88.0778,2.449,8.42,1111122 
DISL,ioos:station:DISL:DISL:1,2014-01-04T01:30:00Z,30.2513,-88.0778,2.441,8.06,1111122 
DISL,ioos:station:DISL:DISL:1,2014-01-04T02:00:00Z,30.2513,-88.0778,2.415,7.97,1111122 
DISL,ioos:station:DISL:DISL:1,2014-01-04T02:30:00Z,30.2513,-88.0778,2.396,7.98,1111122 
DISL,ioos:station:DISL:DISL:1,2014-01-04T03:00:00Z,30.2513,-88.0778,2.413,8.02,1111122 
DISL,ioos:station:DISL:DISL:1,2014-01-04T03:30:00Z,30.2513,-88.0778,2.386,7.99,1111122 
DISL,ioos:station:DISL:DISL:1,2014-01-04T04:00:00Z,30.2513,-88.0778,2.382,7.98,1111122 
DISL,ioos:station:DISL:DISL:1,2014-01-04T04:30:00Z,30.2513,-88.0778,2.405,7.94,1111122 
DISL,ioos:station:DISL:DISL:1,2014-01-04T05:00:00Z,30.2513,-88.0778,2.476,8.22,1111122 
DISL,ioos:station:DISL:DISL:1,2014-01-04T05:30:00Z,30.2513,-88.0778,2.467,9.7,1111122 
DISL,ioos:station:DISL:DISL:1,2014-01-04T06:00:00Z,30.2513,-88.0778,2.525,9.93,1111122 
DISL,ioos:station:DISL:DISL:1,2014-01-04T06:30:00Z,30.2513,-88.0778,2.558,10.08,1111122 
DISL,ioos:station:DISL:DISL:1,2014-01-04T07:00:00Z,30.2513,-88.0778,2.532,10.17,1111122 
DISL,ioos:station:DISL:DISL:1,2014-01-04T07:30:00Z,30.2513,-88.0778,2.54,10.35,1111122 
DISL,ioos:station:DISL:DISL:1,2014-01-04T08:00:00Z,30.2513,-88.0778,2.548,10.38,1111122 
DISL,ioos:station:DISL:DISL:1,2014-01-04T08:30:00Z,30.2513,-88.0778,2.689,10.43,1111122 
DISL,ioos:station:DISL:DISL:1,2014-01-04T09:00:00Z,30.2513,-88.0778,2.504,10.55,1111122 
DISL,ioos:station:DISL:DISL:1,2014-01-04T09:30:00Z,30.2513,-88.0778,2.551,10.38,1111122 
DISL,ioos:station:DISL:DISL:1,2014-01-04T10:00:00Z,30.2513,-88.0778,2.502,10.49,1111122 
DISL,ioos:station:DISL:DISL:1,2014-01-04T10:30:00Z,30.2513,-88.0778,2.486,10.56,1111122 
DISL,ioos:station:DISL:DISL:1,2014-01-04T11:00:00Z,30.2513,-88.0778,2.467,10.52,1111122 
DISL,ioos:station:DISL:DISL:1,2014-01-04T11:30:00Z,30.2513,-88.0778,2.449,10.51,1111122 
DISL,ioos:station:DISL:DISL:1,2014-01-04T12:00:00Z,30.2513,-88.0778,2.391,10.47,1111122 
DISL,ioos:station:DISL:DISL:1,2014-01-04T12:30:00Z,30.2513,-88.0778,2.361,10.49,1111122 
DISL,ioos:station:DISL:DISL:1,2014-01-04T13:00:00Z,30.2513,-88.0778,2.397,10.48,1111122 
DISL,ioos:station:DISL:DISL:1,2014-01-04T13:30:00Z,30.2513,-88.0778,2.41,10.5,1111122 
DISL,ioos:station:DISL:DISL:1,2014-01-04T14:00:00Z,30.2513,-88.0778,2.338,10.55,1111122 
DISL,ioos:station:DISL:DISL:1,2014-01-04T14:30:00Z,30.2513,-88.0778,2.242,10.6,1111122 
DISL,ioos:station:DISL:DISL:1,2014-01-04T15:00:00Z,30.2513,-88.0778,2.33,10.6,1111122 
DISL,ioos:station:DISL:DISL:1,2014-01-04T15:30:00Z,30.2513,-88.0778,2.288,10.54,1111122 
DISL,ioos:station:DISL:DISL:1,2014-01-04T16:00:00Z,30.2513,-88.0778,2.246,10.47,1111122 
DISL,ioos:station:DISL:DISL:1,2014-01-04T16:30:00Z,30.2513,-88.0778,2.217,10.48,1111122 
DISL,ioos:station:DISL:DISL:1,2014-01-04T17:00:00Z,30.2513,-88.0778,2.201,10.46,1111122 
DISL,ioos:station:DISL:DISL:1,2014-01-04T17:30:00Z,30.2513,-88.0778,2.211,10.41,1111122 
DISL,ioos:station:DISL:DISL:1,2014-01-04T18:00:00Z,30.2513,-88.0778,2.199,10.46,1111122 
DISL,ioos:station:DISL:DISL:1,2014-01-04T18:30:00Z,30.2513,-88.0778,2.222,10.35,1111122 
DISL,ioos:station:DISL:DISL:1,2014-01-04T19:00:00Z,30.2513,-88.0778,2.216,10.43,1111122 
DISL,ioos:station:DISL:DISL:1,2014-01-04T19:30:00Z,30.2513,-88.0778,2.195,10.42,1111122 
DISL,ioos:station:DISL:DISL:1,2014-01-04T20:00:00Z,30.2513,-88.0778,2.196,10.22,1111122 
DISL,ioos:station:DISL:DISL:1,2014-01-04T20:30:00Z,30.2513,-88.0778,2.235,10.14,1111122 
DISL,ioos:station:DISL:DISL:1,2014-01-04T21:00:00Z,30.2513,-88.0778,2.287,9.96,1111122 
DISL,ioos:station:DISL:DISL:1,2014-01-04T21:30:00Z,30.2513,-88.0778,2.315,9.94,1111122 
DISL,ioos:station:DISL:DISL:1,2014-01-04T22:00:00Z,30.2513,-88.0778,2.331,10.08,1111122 
DISL,ioos:station:DISL:DISL:1,2014-01-04T22:30:00Z,30.2513,-88.0778,2.327,10.16,1111122 
DISL,ioos:station:DISL:DISL:1,2014-01-04T23:00:00Z,30.2513,-88.0778,2.368,10.16,1111122 
DISL,ioos:station:DISL:DISL:1,2014-01-04T23:30:00Z,30.2513,-88.0778,2.385,10.31,1111122 
DISL,ioos:station:DISL:DISL:1,2014-01-05T00:00:00Z,30.2513,-88.0778,2.382,10.34,1111122 
DISL,ioos:station:DISL:DISL:1,2014-01-05T00:30:00Z,30.2513,-88.0778,2.408,10.27,1111122 
DISL,ioos:station:DISL:DISL:1,2014-01-05T01:00:00Z,30.2513,-88.0778,2.447,10.19,1111122 
DISL,ioos:station:DISL:DISL:1,2014-01-05T01:30:00Z,30.2513,-88.0778,2.459,9.02,1111122 
DISL,ioos:station:DISL:DISL:1,2014-01-05T02:00:00Z,30.2513,-88.0778,2.463,8.75,1111122 
DISL,ioos:station:DISL:DISL:1,2014-01-05T02:30:00Z,30.2513,-88.0778,2.469,8.63,1111122 
DISL,ioos:station:DISL:DISL:1,2014-01-05T03:00:00Z,30.2513,-88.0778,2.453,8.65,1111122 
DISL,ioos:station:DISL:DISL:1,2014-01-05T03:30:00Z,30.2513,-88.0778,2.473,8.67,1111122 
DISL,ioos:station:DISL:DISL:1,2014-01-05T04:00:00Z,30.2513,-88.0778,2.476,8.65,1111122 
DISL,ioos:station:DISL:DISL:1,2014-01-05T04:30:00Z,30.2513,-88.0778,2.428,8.69,1111122 
DISL,ioos:station:DISL:DISL:1,2014-01-05T05:00:00Z,30.2513,-88.0778,2.526,8.96,1111122 
DISL,ioos:station:DISL:DISL:1,2014-01-05T05:30:00Z,30.2513,-88.0778,2.503,8.64,1111122 
DISL,ioos:station:DISL:DISL:1,2014-01-05T06:00:00Z,30.2513,-88.0778,2.559,9.68,1111122 
DISL,ioos:station:DISL:DISL:1,2014-01-05T06:30:00Z,30.2513,-88.0778,2.589,10.42,1111122 
DISL,ioos:station:DISL:DISL:1,2014-01-05T07:00:00Z,30.2513,-88.0778,2.598,10.56,1111122 
DISL,ioos:station:DISL:DISL:1,2014-01-05T07:30:00Z,30.2513,-88.0778,2.604,10.43,1111122 
DISL,ioos:station:DISL:DISL:1,2014-01-05T08:00:00Z,30.2513,-88.0778,2.601,10.36,1111122 
DISL,ioos:station:DISL:DISL:1,2014-01-05T08:30:00Z,30.2513,-88.0778,2.584,10.45,1111122 
DISL,ioos:station:DISL:DISL:1,2014-01-05T09:00:00Z,30.2513,-88.0778,2.594,10.52,1111122 
DISL,ioos:station:DISL:DISL:1,2014-01-05T09:30:00Z,30.2513,-88.0778,2.577,10.51,1111122 
DISL,ioos:station:DISL:DISL:1,2014-01-05T10:00:00Z,30.2513,-88.0778,2.557,10.57,1111122 
DISL,ioos:station:DISL:DISL:1,2014-01-05T10:30:00Z,30.2513,-88.0778,2.507,10.54,1111122 
DISL,ioos:station:DISL:DISL:1,2014-01-05T11:00:00Z,30.2513,-88.0778,2.495,10.48,1111122 
DISL,ioos:station:DISL:DISL:1,2014-01-05T11:30:00Z,30.2513,-88.0778,2.481,10.4,1111122 
DISL,ioos:station:DISL:DISL:1,2014-01-05T12:00:00Z,30.2513,-88.0778,2.447,10.33,1111122 
DISL,ioos:station:DISL:DISL:1,2014-01-05T12:30:00Z,30.2513,-88.0778,2.454,10.33,1111122 
DISL,ioos:station:DISL:DISL:1,2014-01-05T13:00:00Z,30.2513,-88.0778,2.434,10.33,1111122 
DISL,ioos:station:DISL:DISL:1,2014-01-05T13:30:00Z,30.2513,-88.0778,2.414,10.32,1111122 
DISL,ioos:station:DISL:DISL:1,2014-01-05T14:00:00Z,30.2513,-88.0778,2.382,10.35,1111122 
DISL,ioos:station:DISL:DISL:1,2014-01-05T14:30:00Z,30.2513,-88.0778,2.36,10.38,1111122 
DISL,ioos:station:DISL:DISL:1,2014-01-05T15:00:00Z,30.2513,-88.0778,2.368,10.6,1111122 
DISL,ioos:station:DISL:DISL:1,2014-01-05T15:30:00Z,30.2513,-88.0778,2.329,10.7,1111122 
DISL,ioos:station:DISL:DISL:1,2014-01-05T16:00:00Z,30.2513,-88.0778,2.365,10.71,1111122 
DISL,ioos:station:DISL:DISL:1,2014-01-05T16:30:00Z,30.2513,-88.0778,2.367,10.74,1111122 
DISL,ioos:station:DISL:DISL:1,2014-01-05T17:00:00Z,30.2513,-88.0778,2.21,10.74,1111122 
DISL,ioos:station:DISL:DISL:1,2014-01-05T17:30:00Z,30.2513,-88.0778,2.376,10.49,1111122 
DISL,ioos:station:DISL:DISL:1,2014-01-05T18:00:00Z,30.2513,-88.0778,2.433,10.45,1111122 
DISL,ioos:station:DISL:DISL:1,2014-01-05T18:30:00Z,30.2513,-88.0778,2.374,10.5,1111122 
DISL,ioos:station:DISL:DISL:1,2014-01-05T19:00:00Z,30.2513,-88.0778,2.386,10.21,1111122 
DISL,ioos:station:DISL:DISL:1,2014-01-05T19:30:00Z,30.2513,-88.0778,2.377,9.77,1111122 
DISL,ioos:station:DISL:DISL:1,2014-01-05T20:00:00Z,30.2513,-88.0778,2.398,9.74,1111122 
DISL,ioos:station:DISL:DISL:1,2014-01-05T20:30:00Z,30.2513,-88.0778,2.399,9.8,1111122 
DISL,ioos:station:DISL:DISL:1,2014-01-05T21:00:00Z,30.2513,-88.0778,2.42,9.76,1111122 
DISL,ioos:station:DISL:DISL:1,2014-01-05T21:30:00Z,30.2513,-88.0778,2.466,9.8,1111122 
DISL,ioos:station:DISL:DISL:1,2014-01-05T22:00:00Z,30.2513,-88.0778,2.453,9.77,1111122 
DISL,ioos:station:DISL:DISL:1,2014-01-05T22:30:00Z,30.2513,-88.0778,2.477,9.81,1111122 
DISL,ioos:station:DISL:DISL:1,2014-01-05T23:00:00Z,30.2513,-88.0778,2.536,9.7,1111122 
DISL,ioos:station:DISL:DISL:1,2014-01-05T23:30:00Z,30.2513,-88.0778,2.522,9.41,1111122 
DISL,ioos:station:DISL:DISL:1,2014-01-06T00:00:00Z,30.2513,-88.0778,2.528,9.43,1111122 
DISL,ioos:station:DISL:DISL:1,2014-01-06T00:30:00Z,30.2513,-88.0778,2.521,9.48,1111122 
DISL,ioos:station:DISL:DISL:1,2014-01-06T01:00:00Z,30.2513,-88.0778,2.539,8.9,1111122 
DISL,ioos:station:DISL:DISL:1,2014-01-06T01:30:00Z,30.2513,-88.0778,2.551,9.04,1111122 
DISL,ioos:station:DISL:DISL:1,2014-01-06T02:00:00Z,30.2513,-88.0778,2.569,8.65,1111122 
DISL,ioos:station:DISL:DISL:1,2014-01-06T02:30:00Z,30.2513,-88.0778,2.569,8.53,1111122 
DISL,ioos:station:DISL:DISL:1,2014-01-06T03:00:00Z,30.2513,-88.0778,2.561,8.65,1111122 
DISL,ioos:station:DISL:DISL:1,2014-01-06T03:30:00Z,30.2513,-88.0778,2.622,8.83,1111122 
DISL,ioos:station:DISL:DISL:1,2014-01-06T04:00:00Z,30.2513,-88.0778,2.658,10.39,1111122 
DISL,ioos:station:DISL:DISL:1,2014-01-06T04:30:00Z,30.2513,-88.0778,2.704,11.17,1111122 
DISL,ioos:station:DISL:DISL:1,2014-01-06T05:00:00Z,30.2513,-88.0778,2.705,11.17,1111122 
DISL,ioos:station:DISL:DISL:1,2014-01-06T05:30:00Z,30.2513,-88.0778,2.649,11.01,1111122 
DISL,ioos:station:DISL:DISL:1,2014-01-06T06:00:00Z,30.2513,-88.0778,2.717,10.93,1111122 
DISL,ioos:station:DISL:DISL:1,2014-01-06T06:30:00Z,30.2513,-88.0778,2.658,11.0,1111122 
DISL,ioos:station:DISL:DISL:1,2014-01-06T07:00:00Z,30.2513,-88.0778,2.622,10.84,1111122 
DISL,ioos:station:DISL:DISL:1,2014-01-06T07:30:00Z,30.2513,-88.0778,2.58,10.69,1111122 
DISL,ioos:station:DISL:DISL:1,2014-01-06T08:00:00Z,30.2513,-88.0778,2.595,10.71,1111122 
DISL,ioos:station:DISL:DISL:1,2014-01-06T08:30:00Z,30.2513,-88.0778,2.583,10.6,1111122 
DISL,ioos:station:DISL:DISL:1,2014-01-06T09:00:00Z,30.2513,-88.0778,2.691,10.42,1111122 
DISL,ioos:station:DISL:DISL:1,2014-01-06T09:30:00Z,30.2513,-88.0778,2.569,10.46,1111122 
DISL,ioos:station:DISL:DISL:1,2014-01-06T10:00:00Z,30.2513,-88.0778,2.64,10.59,1111122 
DISL,ioos:station:DISL:DISL:1,2014-01-06T10:30:00Z,30.2513,-88.0778,2.585,10.59,1111122 
DISL,ioos:station:DISL:DISL:1,2014-01-06T11:00:00Z,30.2513,-88.0778,2.463,10.52,1111122 
DISL,ioos:station:DISL:DISL:1,2014-01-06T11:30:00Z,30.2513,-88.0778,2.406,10.54,1111122 
DISL,ioos:station:DISL:DISL:1,2014-01-06T12:00:00Z,30.2513,-88.0778,2.326,10.46,1111122 
DISL,ioos:station:DISL:DISL:1,2014-01-06T12:30:00Z,30.2513,-88.0778,2.447,10.44,1111122 
DISL,ioos:station:DISL:DISL:1,2014-01-06T13:00:00Z,30.2513,-88.0778,2.368,10.35,1111122 
DISL,ioos:station:DISL:DISL:1,2014-01-06T13:30:00Z,30.2513,-88.0778,2.421,10.41,1111122 
DISL,ioos:station:DISL:DISL:1,2014-01-06T14:00:00Z,30.2513,-88.0778,2.286,10.2,1111122 
DISL,ioos:station:DISL:DISL:1,2014-01-06T14:30:00Z,30.2513,-88.0778,2.313,10.41,1111122 
DISL,ioos:station:DISL:DISL:1,2014-01-06T15:00:00Z,30.2513,-88.0778,2.313,10.48,1111122 
DISL,ioos:station:DISL:DISL:1,2014-01-06T15:30:00Z,30.2513,-88.0778,2.304,10.5,1111122 
DISL,ioos:station:DISL:DISL:1,2014-01-06T16:00:00Z,30.2513,-88.0778,2.236,10.57,1111122 
DISL,ioos:station:DISL:DISL:1,2014-01-06T16:30:00Z,30.2513,-88.0778,2.32,10.67,1111122 
DISL,ioos:station:DISL:DISL:1,2014-01-06T17:00:00Z,30.2513,-88.0778,2.293,10.69,1111122 
DISL,ioos:station:DISL:DISL:1,2014-01-06T17:30:00Z,30.2513,-88.0778,2.324,10.84,1111122 
DISL,ioos:station:DISL:DISL:1,2014-01-06T18:00:00Z,30.2513,-88.0778,2.287,11.11,1111122 
DISL,ioos:station:DISL:DISL:1,2014-01-06T18:30:00Z,30.2513,-88.0778,2.328,11.4,1111122 
DISL,ioos:station:DISL:DISL:1,2014-01-06T19:00:00Z,30.2513,-88.0778,2.308,11.8,1111122 
DISL,ioos:station:DISL:DISL:1,2014-01-06T19:30:00Z,30.2513,-88.0778,2.284,11.93,1111122 
DISL,ioos:station:DISL:DISL:1,2014-01-06T20:00:00Z,30.2513,-88.0778,2.299,11.92,1111122 
DISL,ioos:station:DISL:DISL:1,2014-01-06T20:30:00Z,30.2513,-88.0778,2.306,12.0,1111122 